Location: Ostrava
(49.8330°N, 18.2830°E)
Time: 21:09:31
(UTC+01:00)

Cosmos 2219 Rocket - Visible Passes

Search period start: 24 November 2017 00:00
Search period end: 04 December 2017 00:00
Orbit: 829 x 846 km, 71.0° (Epoch: 24 November)

Date Brightness Start Highest point End Pass type
(mag) Time Alt. Az. Time Alt. Az. Time Alt. Az.
24 Nov 4.8 02:46:15 12° NNE 02:46:15 12° NNE 02:46:39 10° NNE visible
24 Nov 4.0 04:27:58 18° N 04:27:58 18° N 04:30:06 10° N visible
25 Nov 4.2 04:12:10 16° N 04:12:10 16° N 04:13:47 10° NNE visible
26 Nov 4.4 03:56:20 14° N 03:56:20 14° N 03:57:27 10° NNE visible
27 Nov 4.6 03:40:29 13° N 03:40:29 13° N 03:41:08 10° NNE visible
28 Nov 4.8 03:24:37 11° NNE 03:24:37 11° NNE 03:24:48 10° NNE visible
